Location: Castelbiague
(43.0361°N, 0.9246°E)
Time: 09:14:32
(UTC+00:00)

Meteor 1-4 Rocket - Pass Details

Date: 17 June 2021
Orbit: 447 x 499 km, 81.2° (Epoch: 01 August)

Event Time Altitude Azimuth Distance (km) Brightness Sun altitude
Rises 23:12:06 0° 1° (N) 2,485 7.5 -22.7°
Reaches altitude 10° 23:14:27 10° 15° (NNE) 1,599 6.1 -22.8°
Enters shadow 23:17:05 25° 63° (ENE) 949 4.1 -22.9°
